Regional Weather Roundup
Issued by NWS

Home | Current Version | Previous Version | Graphics & Text | Print | Product List | Glossary On
Versions: 1 2 3 4 5 6 7 8 9 10 11 12 13 14 15 16 17 18 19 20 21 22 23 24 25 26 27 28 29 30 31 32 33 34 35 36 37 38 39 40 41 42 43 44 45 46 47 48 49 50
000
ASUS43 KLSX 252357
RWRMO

WEATHER SUMMARY FOR MISSOURI
NATIONAL WEATHER SERVICE SPRINGFIELD MO
700 PM CDT MON JUL 25 2016

NOTE: "FAIR" INDICATES FEW OR NO CLOUDS BELOW 12,000 FEET WITH NO
       SIGNIFICANT WEATHER AND/OR OBSTRUCTIONS TO VISIBILITY.
       CURRENT SKY AND/OR WEATHER CONDITIONS ARE NOT AVAILABLE FOR
       CHILLICOTHE AND FARMINGTON.

MOZ001>031-035>038-043-044-053-054-260100-
...NORTHERN AND WESTERN MISSOURI...

CITY           SKY/WX    TMP DP  RH WIND       PRES   REMARKS
KANSAS CTY INT PTSUNNY   83  66  56 NE7       30.03R
6HR MIN TEMP:  79; 6HR MAX TEMP:  86;

LEE`S SUMMIT   PTSUNNY   81  69  67 E6        30.03S
6HR MIN TEMP:  76; 6HR MAX TEMP:  85;

ST JOSEPH      PTSUNNY   84  67  56 NE6       30.02S
6HR MIN TEMP:  81; 6HR MAX TEMP:  88;


$$
MOZ066>068-077>081-088>096-101>105-260100-
...SOUTHWEST MISSOURI...

CITY           SKY/WX    TMP DP  RH WIND       PRES   REMARKS
SPRINGFIELD    MOSUNNY   84  71  65 NE8       30.01R
6HR MIN TEMP:  75; 6HR MAX TEMP:  85;

JOPLIN         CLOUDY    83  74  74 N8        30.00S
6HR MIN TEMP:  76; 6HR MAX TEMP:  84;

BRANSON        PTSUNNY   82  73  74 NE3       30.01R

$$
MOZ032>034-039>042-045>050-055>058-069>072-260100-
...CENTRAL MISSOURI...

CITY           SKY/WX    TMP DP  RH WIND       PRES   REMARKS
COLUMBIA       NOT AVBL
JEFFERSON CITY SUNNY     83  72  69 E6        29.99S
6HR MIN TEMP:  81; 6HR MAX TEMP:  85;

ROLLA          MOSUNNY   81  72  74 NE7       30.00R
6HR MIN TEMP:  79; 6HR MAX TEMP:  84;

SEDALIA        MOSUNNY   81  72  74 CALM      30.03R
6HR MIN TEMP:  78; 6HR MAX TEMP:  85;


$$
MOZ051-052-059>065-260100-
...EAST CENTRAL MISSOURI...

CITY           SKY/WX    TMP DP  RH WIND       PRES   REMARKS
ST LOUIS INTL  PTSUNNY   85  74  69 N13       29.98R HX  92
6HR MIN TEMP:  83; 6HR MAX TEMP:  90;


$$
MOZ072>076-082>087-097>100-106>115-260100-
...SOUTH CENTRAL AND SOUTHEAST MISSOURI...

CITY           SKY/WX    TMP DP  RH WIND       PRES   REMARKS
CAPE GIRARDEAU CLOUDY    81  75  82 W3        29.96R
6HR MIN TEMP:  73; 6HR MAX TEMP:  91; 6HR PCP:  0.61;

POPLAR BLUFF   CLOUDY    81  77  88 E3        29.94F
6HR MIN TEMP:  76; 6HR MAX TEMP:  82; 6HR PCP:  0.05;

WEST PLAINS    MOSUNNY   84  72  67 NE12      30.00S
6HR MIN TEMP:  83; 6HR MAX TEMP:  91;


$$



USA.gov is the U.S. government's official web portal to all federal, state and local government web resources and services.